[[{"header":{"parameterUnit":"m.s-1","parameterCategory":1,"la1":30.2991,"la2":30.254,"lo1":-89.0895,"lo2":-89.0444,"dy":0.0017,"dx":0.0017,"nx":28,"ny":28,"refTime":"2023-09-15T09:00:00:Z","depth":0,"parameterNumber":2,"parameterNumberName":"U-component_of_WINDS"},"data":[0,0,0,0,0,0,0,0,0,0,0,0,0,0,0,0,0,0,0,0,0,0,0,0,0,0,0,0,0,0,0,0,0,0,0,0,0,0,0,0,0,0,0,0,0,0,0,0,0,0,0,0,0,0,0,0,0,0,3.3472,3.3472,0,3.3495,3.3496,3.3496,3.3442,3.344,3.3439,3.3437,3.3459,3.3462,3.3464,0,0,0,0,0,0,0,0,0,0,0,0,0,3.3378,3.338,3.3471,3.3472,3.3472,3.3495,3.3496,3.3496,3.3442,3.344,3.3438,3.3436,3.3459,3.3461,3.3464,0,0,0,0,0,0,0,0,0,0,0,0,0,3.3412,3.338,3.3471,3.3448,3.3446,3.3495,3.3496,3.3496,3.3443,3.344,3.3438,3.3435,3.3458,3.3461,3.3464,3.3536,0,0,3.3474,3.3476,0,0,0,0,0,0,0,0,3.341,3.3415,3.3451,3.345,3.3448,3.3463,3.347,3.3509,3.3444,3.3444,3.3437,3.3434,3.3463,3.3465,3.3475,3.3537,3.3538,3.3475,3.3477,3.3478,3.3479,0,0,0,0,0,0,0,3.3407,3.3414,3.3481,3.3452,3.345,3.3436,3.3438,3.3478,3.3467,3.3444,3.344,3.3444,3.3461,3.3472,3.3475,3.3538,3.3474,3.3477,3.3479,3.3481,3.3658,3.3661,0,0,0,0,0,0,3.3408,3.3412,3.348,3.3481,3.3422,3.344,3.3442,3.3461,3.3467,3.3465,3.3446,3.3441,3.3468,3.3472,3.3476,3.3559,3.3478,3.3481,3.3483,3.3655,3.3659,3.3662,0,0,0,0,0,0,3.3407,3.3415,3.3479,3.3446,3.3453,3.3444,3.3466,3.3463,3.3474,3.3468,3.3466,3.3459,3.3466,3.3471,3.3521,3.3559,3.3482,3.3485,3.3652,3.3656,3.366,3.3725,0,0,0,0,0,0,3.3404,3.3415,3.3442,3.3447,3.3455,3.3525,3.3468,3.3465,3.348,3.3474,3.348,3.3479,3.3464,3.3517,3.3524,3.3562,3.3488,3.3649,3.3654,3.3659,3.372,3.3731,3.3741,0,0,0,0,0,3.3401,3.346,3.3444,3.3452,3.3489,3.3527,3.3531,3.3514,3.3483,3.351,3.3507,3.3479,3.3554,3.3522,3.353,3.3569,3.3646,3.3652,3.3658,3.3715,3.3729,3.3741,0,0,0,0,0,0,3.3459,3.346,3.3442,3.3504,3.3516,3.3518,3.3551,3.353,3.355,3.3543,3.3521,3.3522,3.3576,3.3578,3.3543,3.3638,3.3594,3.3603,3.3635,3.3648,3.3658,3.3656,3.3491,0,0,0,0,0,3.3479,3.351,3.3509,3.3564,3.3571,3.356,3.3576,3.3562,3.3573,3.3577,3.3577,3.3588,3.3614,3.3631,3.3655,3.3721,3.372,3.3752,3.3762,3.3771,3.3777,3.381,3.3824,3.3682,3.3682,3.3682,0,0,3.3521,3.3525,3.3546,3.3576,3.3583,3.3614,3.3565,3.3601,3.3623,3.3582,3.3629,3.363,3.364,3.3698,3.3723,3.3701,3.3817,3.3779,3.3786,3.3787,3.3818,3.3832,3.3843,3.3686,3.3685,3.3685,0,0,3.3612,3.362,3.3665,3.3674,3.3685,3.3678,3.3689,3.3695,3.3693,3.374,3.3709,3.3736,3.3782,3.379,3.38,3.3896,3.387,3.3904,3.3958,3.3991,3.4002,3.4012,3.4044,3.4056,3.3911,3.3911,3.3911,0,3.3662,3.3709,3.3691,3.3729,3.3742,3.3707,3.3753,3.3762,3.3781,3.379,3.3766,3.3821,3.3826,3.3884,3.3908,3.3918,3.3928,3.3902,3.4002,3.4012,3.4021,3.405,3.4063,3.3915,3.3915,3.3914,3.3914,0,3.3768,3.3802,3.3837,3.3856,3.3874,3.3916,3.3903,3.3923,3.3908,3.3903,3.395,3.3955,3.3978,3.3992,3.3977,3.4047,3.4033,3.4006,3.3961,3.4038,3.4066,3.4077,3.3921,3.3919,3.3918,3.3917,0,0,3.3895,3.3905,3.3918,3.3926,3.3937,3.3961,3.4001,3.4024,3.4041,3.4056,3.4087,3.4127,3.4101,3.4113,3.4099,3.4128,3.42,3.4097,3.4097,3.4114,3.4276,3.4295,3.4309,3.4185,3.4187,3.4189,3.4275,0,3.3984,3.4052,3.4038,3.4104,3.4134,3.4101,3.4136,3.4145,3.4142,3.4166,3.4162,3.419,3.4156,3.4162,3.419,3.4186,3.4232,3.418,3.4212,3.4213,3.4208,3.4323,3.4343,3.4424,3.4286,3.4287,3.4289,0,3.4096,3.4115,3.4185,3.419,3.4202,3.4233,3.4253,3.4277,3.4287,3.4282,3.4296,3.4276,3.4314,3.4271,3.4322,3.4287,3.4299,3.43,3.4302,3.4303,3.4254,3.4324,3.445,3.4461,3.4306,3.4305,3.4303,0,3.4179,3.4222,3.4269,3.4277,3.4285,3.4307,3.4311,3.4319,3.4334,3.4351,3.436,3.4382,3.4393,3.441,3.4397,3.4367,3.4449,3.4405,3.4445,3.4445,3.4462,3.446,3.4588,3.4474,3.4474,3.4474,3.4474,0,3.4278,3.4322,3.4306,3.4335,3.4382,3.4365,3.4412,3.4412,3.4419,3.4447,3.4421,3.4447,3.4428,3.4453,3.4442,3.4485,3.4491,3.4487,3.4484,3.4488,3.4489,3.4494,3.4487,3.4477,3.4476,3.4476,3.4475,0,3.4378,3.437,3.4418,3.4422,3.4424,3.4458,3.4461,3.4487,3.4482,3.4517,3.4524,3.4516,3.4543,3.4532,3.4561,3.4554,3.4608,3.4598,3.4605,3.4601,3.464,3.4636,3.4775,3.4791,3.4669,3.467,3.4671,0,3.4441,3.4473,3.448,3.4497,3.4503,3.453,3.4545,3.453,3.4546,3.456,3.4584,3.4609,3.4628,3.4673,3.4669,3.4691,3.4679,3.4727,3.4682,3.4686,3.4677,3.4674,3.4677,3.4735,3.4736,3.4737,3.4738,0,3.4552,3.4546,3.4569,3.459,3.4609,3.4625,3.4638,3.4653,3.4638,3.4658,3.4686,3.47,3.473,3.4754,3.4773,3.4777,3.4754,3.4753,3.4762,3.4766,3.4767,3.4765,3.4626,3.4749,3.4748,3.4747,3.4746,3.4746,3.4633,3.466,3.4669,3.4695,3.4704,3.4717,3.4741,3.474,3.4762,3.4785,3.4775,3.4806,3.4815,3.4838,3.4845,3.4868,3.485,3.4865,3.4868,3.4871,3.4875,3.4766,3.4872,3.4872,3.4872,3.4871,3.4871,0,3.4741,3.4746,3.477,3.4789,3.481,3.4789,3.4802,3.482,3.4848,3.4859,3.4878,3.4909,3.4933,3.4931,3.4953,3.4972,3.4962,3.4978,3.4975,3.4976,3.4892,3.488,3.4986,3.4986,3.4986,3.4985,3.4985,3.4985,3.48,3.4843,3.4839,3.4886,3.489,3.492,3.493,3.4941,3.4949,3.4985,3.5005,3.5004,3.5009,3.5031,3.5052,3.5051,3.5059,3.5078,3.5073,3.4994,3.4982,3.4971,3.496,3.508,3.508,3.5154,3.5155,3.5155]},{"header":{"parameterUnit":"m.s-1","parameterCategory":1,"la1":30.2991,"la2":30.254,"lo1":-89.0895,"lo2":-89.0444,"dy":0.0017,"dx":0.0017,"nx":28,"ny":28,"refTime":"2023-09-15T09:00:00:Z","depth":0,"parameterNumber":3,"parameterNumberName":"V-component_of_WINDS"},"data":[0,0,0,0,0,0,0,0,0,0,0,0,0,0,0,0,0,0,0,0,0,0,0,0,0,0,0,0,0,0,0,0,0,0,0,0,0,0,0,0,0,0,0,0,0,0,0,0,0,0,0,0,0,0,0,0,0,0,3.1573,3.1575,0,3.1678,3.1679,3.168,3.1646,3.1644,3.1642,3.164,3.1741,3.1746,3.175,0,0,0,0,0,0,0,0,0,0,0,0,0,3.1336,3.1341,3.1573,3.1575,3.1576,3.1678,3.1679,3.168,3.1647,3.1644,3.1641,3.1639,3.1739,3.1745,3.1751,0,0,0,0,0,0,0,0,0,0,0,0,0,3.144,3.1342,3.1573,3.1572,3.1572,3.1677,3.1679,3.1681,3.1647,3.1644,3.1641,3.1638,3.1738,3.1744,3.1752,3.1862,0,0,3.1773,3.1776,0,0,0,0,0,0,0,0,3.1434,3.1448,3.1571,3.1572,3.1573,3.1646,3.1633,3.1742,3.1648,3.1619,3.164,3.1636,3.1712,3.1721,3.1747,3.1867,3.1871,3.1774,3.1778,3.1781,3.1783,0,0,0,0,0,0,0,3.1427,3.1444,3.1614,3.1572,3.1574,3.1563,3.1574,3.1653,3.1682,3.1621,3.1619,3.1632,3.1712,3.1741,3.1749,3.1873,3.1774,3.178,3.1785,3.1787,3.2085,3.2088,0,0,0,0,0,0,3.142,3.1438,3.1611,3.1618,3.1494,3.157,3.1582,3.1626,3.1682,3.1687,3.1635,3.163,3.173,3.1741,3.1753,3.1885,3.1781,3.1788,3.1792,3.2081,3.2086,3.2089,0,0,0,0,0,0,3.1415,3.1436,3.1607,3.1527,3.1548,3.1578,3.1627,3.163,3.1659,3.1692,3.1696,3.166,3.1728,3.1743,3.1835,3.1888,3.1791,3.1798,3.2077,3.2083,3.2088,3.215,0,0,0,0,0,0,3.1408,3.1434,3.1479,3.1529,3.1553,3.169,3.163,3.1634,3.1672,3.1667,3.1716,3.1721,3.1726,3.1825,3.1842,3.1896,3.1803,3.2072,3.2079,3.2086,3.2143,3.2157,3.2168,0,0,0,0,0,3.14,3.1492,3.1482,3.1503,3.161,3.1693,3.1707,3.1713,3.1676,3.172,3.174,3.172,3.1879,3.1834,3.1854,3.191,3.2069,3.2077,3.2085,3.2138,3.2154,3.2168,0,0,0,0,0,0,3.1447,3.1499,3.1488,3.1599,3.1642,3.1688,3.1743,3.173,3.1783,3.1776,3.1779,3.179,3.1884,3.1906,3.1856,3.2018,3.1968,3.1981,3.2001,3.2017,3.203,3.2022,3.1809,0,0,0,0,0,3.147,3.1536,3.1577,3.1671,3.1693,3.1714,3.1751,3.1751,3.1795,3.1813,3.1841,3.1882,3.1941,3.198,3.2037,3.2146,3.2154,3.2194,3.2206,3.2216,3.2227,3.2283,3.2301,3.2116,3.2116,3.2116,0,0,3.1519,3.1555,3.1597,3.1681,3.1715,3.178,3.173,3.1802,3.185,3.1823,3.1913,3.1934,3.198,3.208,3.2126,3.2102,3.228,3.2227,3.2235,3.224,3.2294,3.2311,3.2326,3.2122,3.2121,3.212,0,0,3.1641,3.1677,3.1758,3.1792,3.1843,3.1856,3.1876,3.1923,3.1936,3.2026,3.2006,3.2061,3.2164,3.2197,3.2227,3.2357,3.2339,3.2375,3.2441,3.2496,3.251,3.2523,3.2568,3.2584,3.2386,3.2386,3.2386,0,3.1695,3.1796,3.18,3.1874,3.191,3.1889,3.197,3.2002,3.2068,3.2092,3.2064,3.2191,3.222,3.2327,3.2359,3.2384,3.2404,3.237,3.2508,3.2521,3.2533,3.2576,3.2593,3.239,3.239,3.2389,3.2389,0,3.1858,3.1927,3.1986,3.2052,3.2095,3.2171,3.2184,3.2226,3.2221,3.2236,3.2325,3.236,3.2422,3.2446,3.2443,3.2552,3.2535,3.2508,3.2457,3.2555,3.2595,3.2611,3.2396,3.2394,3.2393,3.2392,0,0,3.2016,3.2081,3.2103,3.2131,3.2184,3.2237,3.231,3.2372,3.2406,3.2451,3.2511,3.2597,3.2571,3.2605,3.2604,3.2652,3.2751,3.2619,3.262,3.2641,3.287,3.289,3.2909,3.2739,3.2742,3.2744,3.2866,0,3.2142,3.2274,3.2278,3.2397,3.246,3.2439,3.2502,3.254,3.2555,3.2607,3.2622,3.2682,3.2645,3.2665,3.2712,3.2729,3.2797,3.272,3.2792,3.2795,3.2782,3.2931,3.2953,3.3066,3.2882,3.2884,3.2886,0,3.2308,3.2359,3.2485,3.2526,3.2553,3.261,3.2665,3.2716,3.2757,3.2764,3.2801,3.2791,3.2863,3.2809,3.2906,3.2854,3.2882,3.2895,3.2899,3.2906,3.2847,3.2941,3.3102,3.3119,3.2911,3.2909,3.2907,0,3.2409,3.2509,3.2596,3.2621,3.2672,3.2712,3.2735,3.2773,3.2808,3.2855,3.2877,3.2931,3.2961,3.3001,3.3006,3.2967,3.3102,3.3049,3.3108,3.3108,3.3138,3.3136,3.3306,3.3157,3.3157,3.3157,3.3156,0,3.255,3.2627,3.2642,3.2696,3.278,3.2783,3.2865,3.2884,3.2917,3.2972,3.2956,3.3007,3.301,3.3061,3.3064,3.3143,3.3156,3.3162,3.3162,3.3163,3.3163,3.3183,3.3175,3.3161,3.316,3.3159,3.3158,0,3.2678,3.2691,3.2785,3.2825,3.2836,3.2896,3.2929,3.2979,3.299,3.3059,3.3076,3.3094,3.3153,3.3161,3.323,3.3232,3.3326,3.3318,3.3313,3.3311,3.3369,3.3363,3.3557,3.3582,3.3418,3.3419,3.3421,0,3.2767,3.2826,3.2871,3.2908,3.2933,3.2991,3.3027,3.303,3.3067,3.3116,3.3159,3.3217,3.3263,3.3358,3.3376,3.3428,3.342,3.3484,3.3428,3.3427,3.342,3.3416,3.3421,3.3496,3.3497,3.3499,3.35,0,3.2923,3.2926,3.2979,3.3034,3.3078,3.3121,3.3161,3.3191,3.3198,3.324,3.3302,3.3338,3.3407,3.3464,3.3515,3.3535,3.3518,3.3517,3.3533,3.3536,3.353,3.3532,3.3342,3.3513,3.3512,3.3511,3.351,3.351,3.3034,3.3084,3.3123,3.3182,3.3213,3.325,3.3298,3.3315,3.3367,3.3425,3.3422,3.3488,3.3523,3.359,3.3613,3.3663,3.3642,3.3665,3.3671,3.3677,3.3682,3.3522,3.3672,3.3672,3.3671,3.3671,3.3671,0,3.3188,3.3211,3.3266,3.3323,3.3368,3.3349,3.3391,3.343,3.3489,3.3524,3.357,3.3638,3.3691,3.3712,3.3764,3.38,3.3793,3.3813,3.381,3.3815,3.3699,3.3679,3.3818,3.3818,3.3818,3.3818,3.3817,3.3817,3.3273,3.3357,3.3364,3.346,3.3482,3.3548,3.3574,3.3607,3.3634,3.3712,3.3757,3.377,3.3798,3.3852,3.3899,3.3903,3.3922,3.3946,3.3947,3.3838,3.3823,3.3809,3.3791,3.395,3.395,3.4058,3.4059,3.406]}]]